JBU1022 KSAV-KILG

Flight info

Callsign JBU1022
Flight time 1h 35m
Altitude 37000
Route JROSS FILLI HOKMU TAQLE THHMP ARLFT2
Aircraft A320/M-SDE3FGHIRWY/LB1

Departure

Time 2026-04-29 00:18
Airport Savannah Hilton Head International Airport (KSAV)

Arrival

Time 2026-04-29 01:54
Airport Wilmington Airport (KILG)
Time Latitude Longitude Altitude Speed Heading
2026-04-29 00:03 32.13522 -81.20603 25 ft 0 kts 327°
2026-04-29 00:09 32.13509 -81.20596 25 ft 2 kts 338°
2026-04-29 00:09 32.13496 -81.20589 25 ft 2 kts 333°
2026-04-29 00:09 32.13483 -81.20581 25 ft 2 kts 334°
2026-04-29 00:09 32.13469 -81.20573 25 ft 2 kts 334°
2026-04-29 00:10 32.13455 -81.20565 26 ft 2 kts 334°
2026-04-29 00:10 32.13449 -81.20562 26 ft 0 kts 333°
2026-04-29 00:10 32.13446 -81.20559 26 ft 0 kts 277°
2026-04-29 00:10 32.13446 -81.20551 26 ft 0 kts 271°
2026-04-29 00:12 32.13446 -81.20552 26 ft 0 kts 271°
2026-04-29 00:12 32.13446 -81.20574 26 ft 6 kts 271°
2026-04-29 00:13 32.13447 -81.20676 25 ft 15 kts 270°
2026-04-29 00:13 32.13426 -81.20796 24 ft 16 kts 217°
2026-04-29 00:13 32.13315 -81.20816 24 ft 16 kts 182°
2026-04-29 00:13 32.13205 -81.20818 25 ft 15 kts 180°
2026-04-29 00:14 32.13099 -81.20820 25 ft 15 kts 183°
2026-04-29 00:14 32.13041 -81.20907 24 ft 16 kts 268°
2026-04-29 00:14 32.13040 -81.21044 23 ft 17 kts 271°
2026-04-29 00:14 32.13042 -81.21192 21 ft 18 kts 270°
2026-04-29 00:15 32.13043 -81.21347 21 ft 18 kts 271°
2026-04-29 00:15 32.13044 -81.21504 20 ft 19 kts 270°
2026-04-29 00:15 32.13046 -81.21670 18 ft 20 kts 272°
2026-04-29 00:15 32.13042 -81.21826 19 ft 16 kts 244°
2026-04-29 00:16 32.12986 -81.21858 18 ft 0 kts 182°
2026-04-29 00:16 32.12983 -81.21858 18 ft 0 kts 182°
2026-04-29 00:17 32.12922 -81.21859 17 ft 12 kts 175°
2026-04-29 00:17 32.12875 -81.21783 18 ft 12 kts 94°
2026-04-29 00:17 32.12871 -81.21576 19 ft 57 kts 91°
2026-04-29 00:18 32.12868 -81.20809 29 ft 125 kts 91°
2026-04-29 00:18 32.12860 -81.19571 89 ft 172 kts 90°
2026-04-29 00:18 32.12843 -81.18104 538 ft 184 kts 93°
2026-04-29 00:18 32.12789 -81.16531 1025 ft 204 kts 92°
2026-04-29 00:19 32.12774 -81.14791 1623 ft 221 kts 89°
2026-04-29 00:19 32.13047 -81.12965 2176 ft 238 kts 61°
2026-04-29 00:19 32.14213 -81.11516 2692 ft 253 kts 33°
2026-04-29 00:19 32.15733 -81.10397 3330 ft 265 kts 30°
2026-04-29 00:20 32.17292 -81.09261 4191 ft 268 kts 30°
2026-04-29 00:20 32.18851 -81.08062 5073 ft 271 kts 31°
2026-04-29 00:20 32.20419 -81.06801 5923 ft 275 kts 32°
2026-04-29 00:20 32.21988 -81.05500 6773 ft 279 kts 32°
2026-04-29 00:21 32.23565 -81.04166 7616 ft 283 kts 32°
2026-04-29 00:21 32.25167 -81.02797 8431 ft 288 kts 31°
2026-04-29 00:21 32.26782 -81.01410 9211 ft 292 kts 31°
2026-04-29 00:21 32.28432 -80.99989 9777 ft 296 kts 31°
2026-04-29 00:22 32.30093 -80.98557 10307 ft 304 kts 32°
2026-04-29 00:22 32.31851 -80.97044 10850 ft 317 kts 32°
2026-04-29 00:22 32.33672 -80.95470 11392 ft 329 kts 32°
2026-04-29 00:22 32.35529 -80.93858 11950 ft 333 kts 33°
2026-04-29 00:23 32.37390 -80.92239 12468 ft 336 kts 33°
2026-04-29 00:23 32.39275 -80.90596 13015 ft 336 kts 33°
2026-04-29 00:23 32.41138 -80.88972 13516 ft 337 kts 33°
2026-04-29 00:23 32.43030 -80.87322 14043 ft 339 kts 33°
2026-04-29 00:24 32.44929 -80.85666 14575 ft 341 kts 33°
2026-04-29 00:24 32.46859 -80.83979 15114 ft 343 kts 32°
2026-04-29 00:24 32.48772 -80.82310 15641 ft 346 kts 32°
2026-04-29 00:24 32.50713 -80.80616 16175 ft 349 kts 32°
2026-04-29 00:25 32.52668 -80.78909 16709 ft 352 kts 32°
2026-04-29 00:25 32.54642 -80.77183 17247 ft 354 kts 32°
2026-04-29 00:25 32.56638 -80.75438 17788 ft 357 kts 32°
2026-04-29 00:25 32.58655 -80.73674 18346 ft 361 kts 32°
2026-04-29 00:26 32.60667 -80.71912 18889 ft 366 kts 32°
2026-04-29 00:26 32.62732 -80.70104 19440 ft 371 kts 32°
2026-04-29 00:26 32.64821 -80.68272 19971 ft 375 kts 32°
2026-04-29 00:26 32.66913 -80.66436 20517 ft 379 kts 31°
2026-04-29 00:27 32.69050 -80.64562 21046 ft 383 kts 32°
2026-04-29 00:27 32.71212 -80.62722 21578 ft 387 kts 29°
2026-04-29 00:27 32.73496 -80.60978 22121 ft 390 kts 27°
2026-04-29 00:27 32.75801 -80.59267 22662 ft 393 kts 27°
2026-04-29 00:28 32.78102 -80.57566 23196 ft 396 kts 27°
2026-04-29 00:28 32.80475 -80.55809 23748 ft 399 kts 26°
2026-04-29 00:28 32.82836 -80.54058 24302 ft 402 kts 27°
2026-04-29 00:28 32.85180 -80.52320 24853 ft 404 kts 27°
2026-04-29 00:29 32.87573 -80.50539 25415 ft 405 kts 27°
2026-04-29 00:29 32.89958 -80.48761 25975 ft 406 kts 26°
2026-04-29 00:29 32.92369 -80.46965 26540 ft 407 kts 26°
2026-04-29 00:29 32.94746 -80.45191 27098 ft 407 kts 26°
2026-04-29 00:30 32.97133 -80.43410 27662 ft 407 kts 26°
2026-04-29 00:30 32.99544 -80.41609 28229 ft 406 kts 27°
2026-04-29 00:30 33.01911 -80.39840 28795 ft 405 kts 27°
2026-04-29 00:30 33.04295 -80.38056 29365 ft 404 kts 27°
2026-04-29 00:31 33.06664 -80.36283 29929 ft 402 kts 26°
2026-04-29 00:31 33.09034 -80.34502 30502 ft 400 kts 27°
2026-04-29 00:31 33.11404 -80.32725 31072 ft 397 kts 26°
2026-04-29 00:31 33.13730 -80.30981 31610 ft 395 kts 26°
2026-04-29 00:32 33.16038 -80.29249 32024 ft 396 kts 26°
2026-04-29 00:32 33.18357 -80.27507 32439 ft 396 kts 26°
2026-04-29 00:32 33.20707 -80.25742 32860 ft 396 kts 26°
2026-04-29 00:32 33.23033 -80.23995 33274 ft 395 kts 26°
2026-04-29 00:33 33.25336 -80.22264 33700 ft 394 kts 26°
2026-04-29 00:33 33.27655 -80.20519 34161 ft 392 kts 26°
2026-04-29 00:33 33.29932 -80.18801 34618 ft 390 kts 25°
2026-04-29 00:33 33.32233 -80.17066 35078 ft 387 kts 25°
2026-04-29 00:34 33.34528 -80.15338 35140 ft 395 kts 25°
2026-04-29 00:34 33.39271 -80.11775 35155 ft 412 kts 25°
2026-04-29 00:35 33.44194 -80.08059 35165 ft 428 kts 25°
2026-04-29 00:35 33.49318 -80.04181 35169 ft 443 kts 25°
2026-04-29 00:36 33.54590 -80.00185 35208 ft 456 kts 26°
2026-04-29 00:36 33.57251 -79.98161 35685 ft 451 kts 26°
2026-04-29 00:36 33.59911 -79.96130 36208 ft 446 kts 25°
2026-04-29 00:36 33.62475 -79.94176 36727 ft 440 kts 25°
2026-04-29 00:37 33.65045 -79.92217 37082 ft 439 kts 25°
2026-04-29 00:37 33.70300 -79.88226 37088 ft 450 kts 25°
2026-04-29 00:38 33.75611 -79.84177 37088 ft 460 kts 26°
2026-04-29 00:38 33.81074 -79.80001 37089 ft 469 kts 25°
2026-04-29 00:39 33.86638 -79.75845 37086 ft 474 kts 23°
2026-04-29 00:39 33.92398 -79.71957 37085 ft 476 kts 22°
2026-04-29 00:40 33.98225 -79.68047 37088 ft 478 kts 22°
2026-04-29 00:40 34.04022 -79.64140 37086 ft 478 kts 22°
2026-04-29 00:41 34.09820 -79.60219 37088 ft 478 kts 22°
2026-04-29 00:41 34.15638 -79.56277 37095 ft 477 kts 22°
2026-04-29 00:42 34.21423 -79.52353 37086 ft 478 kts 22°
2026-04-29 00:42 34.27210 -79.48418 37089 ft 478 kts 22°
2026-04-29 00:43 34.32969 -79.44496 37090 ft 477 kts 22°
2026-04-29 00:43 34.38734 -79.40565 37086 ft 476 kts 22°
2026-04-29 00:44 34.44504 -79.36624 37080 ft 476 kts 22°
2026-04-29 00:44 34.50285 -79.32670 37081 ft 476 kts 22°
2026-04-29 00:45 34.56031 -79.28733 37079 ft 476 kts 22°
2026-04-29 00:45 34.61805 -79.24771 37081 ft 477 kts 22°
2026-04-29 00:46 34.67582 -79.20798 37083 ft 477 kts 22°
2026-04-29 00:46 34.73345 -79.16830 37081 ft 477 kts 22°
2026-04-29 00:47 34.79119 -79.12846 37083 ft 478 kts 22°
2026-04-29 00:47 34.84900 -79.08853 37082 ft 477 kts 22°
2026-04-29 00:48 34.90672 -79.04859 37084 ft 479 kts 22°
2026-04-29 00:48 34.96446 -79.00855 37080 ft 479 kts 22°
2026-04-29 00:49 35.02220 -78.96842 37087 ft 478 kts 22°
2026-04-29 00:49 35.08023 -78.92806 37085 ft 479 kts 22°
2026-04-29 00:50 35.13802 -78.88773 37082 ft 478 kts 21°
2026-04-29 00:50 35.19551 -78.84709 37080 ft 479 kts 23°
2026-04-29 00:51 35.25236 -78.80424 37079 ft 480 kts 24°
2026-04-29 00:51 35.30888 -78.76112 37079 ft 481 kts 24°
2026-04-29 00:52 35.36568 -78.71776 37082 ft 481 kts 24°
2026-04-29 00:52 35.42242 -78.67436 37083 ft 480 kts 24°
2026-04-29 00:53 35.47895 -78.63111 37085 ft 478 kts 24°
2026-04-29 00:53 35.53519 -78.58801 37080 ft 478 kts 24°
2026-04-29 00:54 35.59192 -78.54452 37081 ft 480 kts 24°
2026-04-29 00:54 35.64841 -78.50104 37079 ft 480 kts 24°
2026-04-29 00:55 35.70495 -78.45746 37018 ft 479 kts 23°
2026-04-29 00:55 35.73281 -78.43597 36735 ft 476 kts 23°
2026-04-29 00:55 35.76098 -78.41418 36454 ft 473 kts 23°
2026-04-29 00:55 35.78847 -78.39293 36176 ft 470 kts 23°
2026-04-29 00:56 35.81587 -78.37176 35898 ft 467 kts 23°
2026-04-29 00:56 35.84333 -78.35048 35617 ft 464 kts 22°
2026-04-29 00:56 35.87082 -78.32916 35332 ft 461 kts 24°
2026-04-29 00:56 35.89777 -78.30831 35055 ft 460 kts 23°
2026-04-29 00:57 35.92476 -78.28737 34777 ft 459 kts 23°
2026-04-29 00:57 35.95183 -78.26635 34496 ft 456 kts 23°
2026-04-29 00:57 35.97851 -78.24563 34218 ft 454 kts 23°
2026-04-29 00:57 36.00514 -78.22491 33943 ft 451 kts 23°
2026-04-29 00:58 36.03202 -78.20403 33683 ft 462 kts 23°
2026-04-29 00:58 36.05927 -78.18291 33439 ft 471 kts 23°
2026-04-29 00:58 36.08731 -78.16106 33195 ft 474 kts 23°
2026-04-29 00:58 36.11520 -78.13921 32946 ft 472 kts 23°
2026-04-29 00:59 36.14284 -78.11752 32694 ft 467 kts 23°
2026-04-29 00:59 36.17036 -78.09594 32455 ft 464 kts 23°
2026-04-29 00:59 36.19759 -78.07459 32214 ft 461 kts 22°
2026-04-29 00:59 36.22477 -78.05450 31973 ft 454 kts 19°
2026-04-29 01:00 36.25260 -78.03630 31730 ft 446 kts 16°
2026-04-29 01:00 36.28047 -78.02001 31478 ft 443 kts 14°
2026-04-29 01:00 36.30833 -78.00420 31227 ft 439 kts 14°
2026-04-29 01:00 36.33583 -77.98864 30985 ft 436 kts 14°
2026-04-29 01:01 36.36340 -77.97305 30733 ft 441 kts 14°
2026-04-29 01:01 36.39189 -77.95704 30476 ft 454 kts 14°
2026-04-29 01:01 36.42068 -77.94073 30223 ft 455 kts 14°
2026-04-29 01:01 36.44923 -77.92439 29973 ft 453 kts 14°
2026-04-29 01:02 36.47809 -77.90787 29718 ft 451 kts 14°
2026-04-29 01:02 36.50622 -77.89173 29465 ft 450 kts 14°
2026-04-29 01:02 36.53475 -77.87537 29208 ft 448 kts 14°
2026-04-29 01:02 36.56306 -77.85914 29096 ft 447 kts 14°
2026-04-29 01:03 36.59134 -77.84299 29093 ft 456 kts 14°
2026-04-29 01:03 36.64944 -77.80968 29092 ft 463 kts 15°
2026-04-29 01:04 36.70776 -77.77607 29091 ft 461 kts 15°
2026-04-29 01:04 36.76591 -77.74251 29089 ft 461 kts 15°
2026-04-29 01:05 36.82458 -77.70865 29089 ft 463 kts 14°
2026-04-29 01:05 36.88300 -77.67487 29090 ft 463 kts 15°
2026-04-29 01:06 36.94123 -77.64114 29086 ft 465 kts 14°
2026-04-29 01:06 36.99965 -77.60719 29046 ft 463 kts 14°
2026-04-29 01:06 37.02899 -77.59016 28611 ft 460 kts 15°
2026-04-29 01:07 37.05780 -77.57341 28151 ft 459 kts 15°
2026-04-29 01:07 37.08654 -77.55668 27702 ft 457 kts 15°
2026-04-29 01:07 37.11530 -77.53992 27251 ft 454 kts 15°
2026-04-29 01:07 37.14391 -77.52325 26814 ft 449 kts 15°
2026-04-29 01:08 37.17236 -77.50668 26362 ft 446 kts 16°
2026-04-29 01:08 37.20038 -77.49030 25909 ft 445 kts 16°
2026-04-29 01:08 37.22811 -77.47411 25461 ft 443 kts 17°
2026-04-29 01:08 37.25666 -77.45750 24998 ft 459 kts 17°
2026-04-29 01:09 37.28569 -77.44056 24545 ft 464 kts 18°
2026-04-29 01:09 37.31480 -77.42348 24100 ft 464 kts 18°
2026-04-29 01:09 37.34399 -77.40629 23648 ft 461 kts 18°
2026-04-29 01:09 37.37304 -77.38913 23193 ft 458 kts 18°
2026-04-29 01:10 37.40161 -77.37228 22741 ft 455 kts 19°
2026-04-29 01:10 37.43018 -77.35546 22286 ft 451 kts 19°
2026-04-29 01:10 37.45835 -77.33849 21833 ft 451 kts 22°
2026-04-29 01:10 37.48574 -77.31907 21382 ft 452 kts 26°
2026-04-29 01:11 37.51174 -77.29688 21107 ft 453 kts 31°
2026-04-29 01:11 37.53650 -77.27206 21091 ft 457 kts 34°
2026-04-29 01:11 37.56083 -77.24629 21084 ft 460 kts 35°
2026-04-29 01:11 37.58517 -77.22020 21087 ft 459 kts 36°
2026-04-29 01:12 37.60950 -77.19402 21089 ft 459 kts 36°
2026-04-29 01:12 37.63373 -77.16791 20847 ft 459 kts 35°
2026-04-29 01:12 37.65781 -77.14206 20372 ft 453 kts 36°
2026-04-29 01:12 37.68166 -77.11647 19883 ft 450 kts 36°
2026-04-29 01:13 37.70540 -77.09100 19391 ft 447 kts 36°
2026-04-29 01:13 37.72881 -77.06587 18913 ft 444 kts 36°
2026-04-29 01:13 37.75215 -77.04076 18410 ft 441 kts 37°
2026-04-29 01:13 37.77545 -77.01565 17930 ft 439 kts 36°
2026-04-29 01:14 37.79848 -76.99084 17466 ft 435 kts 37°
2026-04-29 01:14 37.82127 -76.96625 16988 ft 427 kts 36°
2026-04-29 01:14 37.84375 -76.94196 16504 ft 419 kts 36°
2026-04-29 01:14 37.86548 -76.91846 16026 ft 411 kts 36°
2026-04-29 01:15 37.88706 -76.89516 15544 ft 403 kts 36°
2026-04-29 01:15 37.90828 -76.87225 15061 ft 397 kts 36°
2026-04-29 01:15 37.92899 -76.84985 14582 ft 391 kts 36°
2026-04-29 01:15 37.94939 -76.82775 14107 ft 385 kts 36°
2026-04-29 01:16 37.96960 -76.80579 13623 ft 380 kts 36°
2026-04-29 01:16 37.98937 -76.78433 13164 ft 374 kts 36°
2026-04-29 01:16 38.00893 -76.76308 12953 ft 360 kts 36°
2026-04-29 01:16 38.02725 -76.74313 12942 ft 342 kts 36°
2026-04-29 01:17 38.04494 -76.72380 12937 ft 324 kts 35°
2026-04-29 01:17 38.06172 -76.70557 12943 ft 318 kts 34°
2026-04-29 01:17 38.07841 -76.68748 12944 ft 318 kts 35°
2026-04-29 01:17 38.09523 -76.66923 12940 ft 317 kts 36°
2026-04-29 01:18 38.11170 -76.65019 12939 ft 319 kts 38°
2026-04-29 01:18 38.14386 -76.61166 12934 ft 320 kts 38°
2026-04-29 01:18 38.16019 -76.59203 12946 ft 320 kts 38°
2026-04-29 01:19 38.17628 -76.57264 12950 ft 319 kts 37°
2026-04-29 01:19 38.19222 -76.55342 12952 ft 318 kts 37°
2026-04-29 01:19 38.20838 -76.53400 12950 ft 318 kts 38°
2026-04-29 01:19 38.22429 -76.51487 12952 ft 319 kts 38°
2026-04-29 01:20 38.24035 -76.49551 12953 ft 318 kts 37°
2026-04-29 01:20 38.25658 -76.47591 12952 ft 318 kts 37°
2026-04-29 01:20 38.27261 -76.45656 12951 ft 318 kts 38°
2026-04-29 01:20 38.28856 -76.43729 12951 ft 318 kts 37°
2026-04-29 01:21 38.30454 -76.41798 12951 ft 318 kts 37°
2026-04-29 01:21 38.32063 -76.39853 12949 ft 318 kts 37°
2026-04-29 01:21 38.33653 -76.37929 12948 ft 318 kts 37°
2026-04-29 01:21 38.35256 -76.35986 12948 ft 318 kts 37°
2026-04-29 01:22 38.36863 -76.34036 12943 ft 317 kts 38°
2026-04-29 01:22 38.38458 -76.32101 12947 ft 317 kts 38°
2026-04-29 01:22 38.40056 -76.30163 12941 ft 317 kts 38°
2026-04-29 01:22 38.41692 -76.28284 12952 ft 316 kts 35°
2026-04-29 01:23 38.43412 -76.26536 12962 ft 314 kts 31°
2026-04-29 01:23 38.45151 -76.24907 12949 ft 313 kts 30°
2026-04-29 01:23 38.46918 -76.23272 12931 ft 313 kts 30°
2026-04-29 01:23 38.48674 -76.21648 12951 ft 312 kts 30°
2026-04-29 01:24 38.50427 -76.20024 12954 ft 313 kts 30°
2026-04-29 01:24 38.52206 -76.18371 12932 ft 313 kts 30°
2026-04-29 01:24 38.53967 -76.16736 12955 ft 313 kts 30°
2026-04-29 01:24 38.55722 -76.15102 12934 ft 312 kts 30°
2026-04-29 01:25 38.57457 -76.13483 12943 ft 312 kts 30°
2026-04-29 01:25 38.59219 -76.11845 12762 ft 313 kts 30°
2026-04-29 01:25 38.60984 -76.10201 12322 ft 312 kts 30°
2026-04-29 01:25 38.62729 -76.08575 11887 ft 311 kts 31°
2026-04-29 01:26 38.64473 -76.06953 11447 ft 309 kts 31°
2026-04-29 01:26 38.66199 -76.05347 11009 ft 308 kts 31°
2026-04-29 01:26 38.67928 -76.03735 10566 ft 307 kts 31°
2026-04-29 01:26 38.69632 -76.02144 10123 ft 305 kts 32°
2026-04-29 01:27 38.71337 -76.00552 9680 ft 304 kts 32°
2026-04-29 01:27 38.73041 -75.98953 9241 ft 302 kts 32°
2026-04-29 01:27 38.74717 -75.97382 8803 ft 300 kts 32°
2026-04-29 01:27 38.76402 -75.95802 8356 ft 299 kts 32°
2026-04-29 01:28 38.78079 -75.94233 7935 ft 297 kts 32°
2026-04-29 01:28 38.79736 -75.92676 7513 ft 296 kts 32°
2026-04-29 01:28 38.81391 -75.91121 7093 ft 292 kts 33°
2026-04-29 01:28 38.82995 -75.89610 6980 ft 280 kts 33°
2026-04-29 01:29 38.84553 -75.88143 7002 ft 279 kts 33°
2026-04-29 01:29 38.86131 -75.86661 6958 ft 279 kts 33°
2026-04-29 01:29 38.87679 -75.85205 6976 ft 279 kts 33°
2026-04-29 01:29 38.89250 -75.83727 6967 ft 278 kts 33°
2026-04-29 01:30 38.90762 -75.82303 6968 ft 263 kts 33°
2026-04-29 01:30 38.92199 -75.80942 6977 ft 247 kts 32°
2026-04-29 01:30 38.93529 -75.79684 6979 ft 232 kts 32°
2026-04-29 01:30 38.94788 -75.78496 6961 ft 217 kts 32°
2026-04-29 01:31 38.95991 -75.77362 6964 ft 213 kts 32°
2026-04-29 01:31 38.97184 -75.76241 6969 ft 213 kts 32°
2026-04-29 01:31 38.98376 -75.75119 6971 ft 213 kts 31°
2026-04-29 01:31 38.99582 -75.73985 6973 ft 213 kts 32°
2026-04-29 01:32 39.00766 -75.72864 6978 ft 213 kts 31°
2026-04-29 01:32 39.01958 -75.71736 6975 ft 212 kts 31°
2026-04-29 01:32 39.03160 -75.70604 6971 ft 213 kts 32°
2026-04-29 01:32 39.04349 -75.69479 6970 ft 213 kts 31°
2026-04-29 01:33 39.05542 -75.68349 6972 ft 213 kts 31°
2026-04-29 01:33 39.06730 -75.67224 6974 ft 213 kts 32°
2026-04-29 01:33 39.07944 -75.66074 6972 ft 213 kts 31°
2026-04-29 01:33 39.09130 -75.64949 6970 ft 213 kts 32°
2026-04-29 01:34 39.10325 -75.63814 6970 ft 213 kts 31°
2026-04-29 01:34 39.11525 -75.62678 6967 ft 213 kts 32°
2026-04-29 01:34 39.12720 -75.61540 6964 ft 213 kts 32°
2026-04-29 01:34 39.13905 -75.60415 6966 ft 212 kts 32°
2026-04-29 01:35 39.15106 -75.59274 6967 ft 213 kts 32°
2026-04-29 01:35 39.16289 -75.58151 6964 ft 213 kts 32°
2026-04-29 01:35 39.17489 -75.57012 6960 ft 213 kts 31°
2026-04-29 01:35 39.18678 -75.55880 6966 ft 213 kts 32°
2026-04-29 01:36 39.19876 -75.54739 6975 ft 213 kts 31°
2026-04-29 01:36 39.21016 -75.53533 6970 ft 215 kts 38°
2026-04-29 01:36 39.22035 -75.52099 6976 ft 218 kts 47°
2026-04-29 01:36 39.22887 -75.50472 6976 ft 221 kts 56°
2026-04-29 01:37 39.23555 -75.48656 6977 ft 224 kts 65°
2026-04-29 01:37 39.24000 -75.46736 6978 ft 226 kts 72°
2026-04-29 01:37 39.24330 -75.44752 6975 ft 226 kts 74°
2026-04-29 01:37 39.24606 -75.42744 6971 ft 227 kts 76°
2026-04-29 01:38 39.24830 -75.40752 6957 ft 228 kts 77°
2026-04-29 01:38 39.25039 -75.38710 6692 ft 234 kts 78°
2026-04-29 01:38 39.25270 -75.36584 6123 ft 246 kts 78°
2026-04-29 01:38 39.25704 -75.34451 5533 ft 252 kts 57°
2026-04-29 01:39 39.26976 -75.32937 4942 ft 252 kts 20°
2026-04-29 01:39 39.28675 -75.32732 4370 ft 254 kts 345°
2026-04-29 01:39 39.30248 -75.33785 3808 ft 257 kts 315°
2026-04-29 01:39 39.31283 -75.35595 3279 ft 251 kts 300°
2026-04-29 01:40 39.32179 -75.37463 2988 ft 235 kts 301°
2026-04-29 01:40 39.33045 -75.39195 2974 ft 231 kts 302°
2026-04-29 01:40 39.33936 -75.40945 2973 ft 231 kts 302°
2026-04-29 01:40 39.34800 -75.42613 2962 ft 215 kts 302°
2026-04-29 01:41 39.35608 -75.44166 2960 ft 206 kts 302°
2026-04-29 01:41 39.36408 -75.45703 2965 ft 206 kts 302°
2026-04-29 01:41 39.37217 -75.47256 2818 ft 208 kts 303°
2026-04-29 01:41 39.38025 -75.48801 2564 ft 207 kts 303°
2026-04-29 01:42 39.38822 -75.50326 2312 ft 207 kts 302°
2026-04-29 01:42 39.39635 -75.51878 2101 ft 207 kts 302°
2026-04-29 01:42 39.40438 -75.53416 2072 ft 208 kts 302°
2026-04-29 01:42 39.41253 -75.54975 2071 ft 208 kts 302°
2026-04-29 01:43 39.42060 -75.56516 2069 ft 209 kts 302°
2026-04-29 01:43 39.42865 -75.58061 2062 ft 203 kts 303°
2026-04-29 01:43 39.43630 -75.59521 2045 ft 189 kts 302°
2026-04-29 01:43 39.44373 -75.60941 2058 ft 189 kts 302°
2026-04-29 01:44 39.45098 -75.62336 2063 ft 188 kts 302°
2026-04-29 01:44 39.45836 -75.63750 2066 ft 189 kts 302°
2026-04-29 01:44 39.46566 -75.65148 2067 ft 189 kts 301°
2026-04-29 01:44 39.47310 -75.66581 2067 ft 189 kts 301°
2026-04-29 01:45 39.48042 -75.67989 2065 ft 188 kts 301°
2026-04-29 01:45 39.48770 -75.69387 2066 ft 188 kts 302°
2026-04-29 01:45 39.49500 -75.70789 2068 ft 189 kts 302°
2026-04-29 01:45 39.50237 -75.72208 2068 ft 189 kts 302°
2026-04-29 01:46 39.50969 -75.73614 2067 ft 189 kts 301°
2026-04-29 01:46 39.51707 -75.75034 2070 ft 189 kts 301°
2026-04-29 01:46 39.52441 -75.76449 2069 ft 189 kts 301°
2026-04-29 01:46 39.53174 -75.77863 2065 ft 189 kts 301°
2026-04-29 01:47 39.53907 -75.79276 2071 ft 189 kts 301°
2026-04-29 01:47 39.54647 -75.80701 2067 ft 189 kts 301°
2026-04-29 01:47 39.55438 -75.82053 2063 ft 190 kts 315°
2026-04-29 01:47 39.56524 -75.83015 2060 ft 191 kts 336°
2026-04-29 01:48 39.57793 -75.83509 2067 ft 192 kts 346°
2026-04-29 01:48 39.59108 -75.83863 2067 ft 193 kts 348°
2026-04-29 01:48 39.60437 -75.84206 2061 ft 189 kts 348°
2026-04-29 01:48 39.61680 -75.84538 2036 ft 175 kts 347°
2026-04-29 01:49 39.62868 -75.84722 2025 ft 173 kts 13°
2026-04-29 01:49 39.63894 -75.83987 2064 ft 169 kts 56°
2026-04-29 01:49 39.64392 -75.82622 2140 ft 167 kts 76°
2026-04-29 01:49 39.64658 -75.81213 2078 ft 156 kts 82°
2026-04-29 01:50 39.64865 -75.79880 2054 ft 149 kts 82°
2026-04-29 01:50 39.65067 -75.78556 2062 ft 149 kts 82°
2026-04-29 01:50 39.65277 -75.77232 2061 ft 149 kts 82°
2026-04-29 01:50 39.65492 -75.75917 2087 ft 148 kts 81°
2026-04-29 01:51 39.65706 -75.74638 2014 ft 144 kts 82°
2026-04-29 01:51 39.65913 -75.73400 1820 ft 141 kts 82°
2026-04-29 01:51 39.66122 -75.72152 1630 ft 140 kts 82°
2026-04-29 01:51 39.66328 -75.70921 1443 ft 139 kts 82°
2026-04-29 01:52 39.66533 -75.69696 1259 ft 139 kts 82°
2026-04-29 01:52 39.66737 -75.68477 1076 ft 138 kts 82°
2026-04-29 01:52 39.66940 -75.67264 891 ft 137 kts 82°
2026-04-29 01:52 39.67140 -75.66070 707 ft 136 kts 82°
2026-04-29 01:53 39.67342 -75.64860 526 ft 136 kts 81°
2026-04-29 01:53 39.67542 -75.63666 358 ft 135 kts 81°
2026-04-29 01:53 39.67743 -75.62479 176 ft 135 kts 80°
2026-04-29 01:53 39.67934 -75.61362 77 ft 118 kts 81°
2026-04-29 01:54 39.68052 -75.60599 70 ft 65 kts 77°
2026-04-29 01:54 39.68145 -75.60067 71 ft 50 kts 76°
2026-04-29 01:54 39.68205 -75.59713 73 ft 30 kts 76°
2026-04-29 01:54 39.68161 -75.59527 74 ft 20 kts 175°
2026-04-29 01:55 39.68099 -75.59639 76 ft 16 kts 255°
2026-04-29 01:55 39.68041 -75.59759 76 ft 16 kts 222°
2026-04-29 01:55 39.67945 -75.59864 75 ft 18 kts 218°
2026-04-29 01:55 39.67846 -75.59974 77 ft 19 kts 220°
2026-04-29 01:56 39.67756 -75.60070 77 ft 14 kts 199°
2026-04-29 01:56 39.67678 -75.59995 77 ft 15 kts 133°
2026-04-29 01:56 39.67621 -75.59885 77 ft 11 kts 116°
2026-04-29 01:56 39.67567 -75.59866 77 ft 4 kts 213°
2026-04-29 01:57 39.67553 -75.59879 77 ft 0 kts 217°
2026-04-29 01:57 39.67551 -75.59882 77 ft 0 kts 218°
2026-04-29 01:57 39.67550 -75.59883 77 ft 0 kts 218°